Regional Weather Roundup
Issued by NWS

Home | Current Version | Previous Version | Graphics & Text | Print | Product List | Glossary On
Versions: 1 2 3 4 5 6 7 8 9 10 11 12 13 14 15 16 17 18 19 20 21 22 23 24 25 26 27 28 29 30 31 32 33 34 35 36 37 38 39 40 41 42 43 44 45 46 47 48 49 50
117
ASUS43 KOAX 300102
RWRNE

WEATHER ROUNDUP FOR NEBRASKA
NATIONAL WEATHER SERVICE OMAHA NE
800 PM CDT WED MAR 29 2017

NOTES: SATELLITE DATA IS BEING USED TO AUGMENT CLOUD COVER ABOVE
       12000 FEET.
       "FAIR" INDICATES FEW OR NO CLOUDS BELOW 12,000 FEET WITH NO
       SIGNIFICANT WEATHER AND/OR OBSTRUCTIONS TO VISIBILITY.

  * THESE STATIONS DO NOT REPORT WEATHER SUCH AS RAIN...SNOW OR FOG.

NEZ001>004-019>022-054>056-300200-
NEBRASKA PANHANDLE

CITY           SKY/WX    TMP DP  RH WIND       PRES   REMARKS
SCOTTSBLUFF    CLEAR     51  38  60 E14       29.95R
ALLIANCE       CLEAR     46  37  71 E10       29.95S
CHADRON        CLEAR     52  39  61 E10       29.95S
KIMBALL        CLEAR     48  39  71 NE8       29.97S
SIDNEY         CLEAR     46  37  71 E10       29.97S
$$

NEZ057>060-069>072-079>082-300200-
SOUTHWEST NEBRASKA

CITY           SKY/WX    TMP DP  RH WIND       PRES   REMARKS
NORTH PLATTE   CLOUDY    45  37  73 N15       29.95R
IMPERIAL       CLOUDY    45  38  76 N12       29.96R
LEXINGTON      LGT RAIN  42  39  90 N21G28    29.91S
MCCOOK         CLOUDY    44  41  89 N15       29.91R
OGALLALA       CLOUDY    48  39  69 NE9       29.96S
$$

NEZ005>010-023>029-035>040-094-300200-
NORTH CENTRAL NEBRASKA

CITY           SKY/WX    TMP DP  RH WIND       PRES   REMARKS
VALENTINE      CLOUDY    44  36  73 E14       30.00S
AINSWORTH      CLOUDY    42  38  84 NE9       29.99F
BROKEN BOW     LGT RAIN  41  38  89 N15G23    29.92F
O`NEILL        CLOUDY    40  39  97 NE14      29.98S WCI  32
ORD            LGT RAIN  40  36  86 N16       29.92S WCI  31
$$

NEZ041-046>049-061>064-073>077-083>087-300200-
SOUTH CENTRAL NEBRASKA

CITY           SKY/WX    TMP DP  RH WIND       PRES   REMARKS
GRAND ISLAND   LGT RAIN  40  40 100 N17       29.86S WCI  31
AURORA         LGT RAIN  40  40  99 NE18G28   29.84S WCI  31
HASTINGS       LGT RAIN  41  38  89 N23G30    29.84F
HEBRON         CLOUDY    42  40  95 N17G23    29.76F
HOLDREGE       RAIN      38  36  91 N23G31    29.87S WCI  28
KEARNEY *      CLOUDY    39  34  81 N22G31    29.88S WCI  29
YORK           LGT RAIN  41  41 100 NE21G26   29.83S
$$

NEZ011>018-030>034-042>045-300200-
NORTHEAST NEBRASKA

CITY           SKY/WX    TMP DP  RH WIND       PRES   REMARKS
NORFOLK        CLOUDY    40  37  89 NE14G24   29.90S WCI  32
ALBION         LGT RAIN  42  38  86 NE16      29.91F
BLAIR          DRIZZLE   41  39  93 NE22G29   29.84F
FREMONT        CLOUDY    41  40  95 NE20G28   29.86R
TEKAMAH        LGT RAIN  42  38  85 NE22G30   29.87F
WAYNE          CLOUDY    40  39  95 E17G24    29.93S WCI  32
$$

NEZ050>053-065>068-078-088>093-300200-
SOUTHEAST NEBRASKA

CITY           SKY/WX    TMP DP  RH WIND       PRES   REMARKS
LINCOLN        CLOUDY    42  40  92 NE25G36   29.81F
OMAHA EPPLEY   LGT RAIN  42  37  82 NE18G28   29.85R FOG
BEATRICE       CLOUDY    43  42  99 NE21G29   29.73F
FALLS CITY     CLOUDY    49  47  93 NE14      29.69F
NEBRASKA CITY  CLOUDY    43  43 100 NE18G24   29.75F
PLATTSMOUTH    CLOUDY    42  40  90 N17G23    29.79F FOG
$$

NEZ044-045-051>053-067-300200-
OMAHA AREA

CITY           SKY/WX    TMP DP  RH WIND       PRES   REMARKS
OMAHA EPPLEY   LGT RAIN  42  37  82 NE18G28   29.85R FOG
BLAIR          DRIZZLE   41  39  93 NE22G29   29.84F
FREMONT        CLOUDY    41  40  95 NE20G28   29.86R
MILLARD        DRIZZLE   43  41  92 NE10G18   29.83F
OFFUTT AFB     LGT RAIN  42  40  92 N16G23    29.81F FOG
PLATTSMOUTH    CLOUDY    42  40  90 N17G23    29.79F FOG
WAHOO          CLOUDY    41  39  93 NE24G31   29.82F
$$




USA.gov is the U.S. government's official web portal to all federal, state and local government web resources and services.